Time,TemperatureF,DewpointF,PressureIn,WindDirection,WindDirectionDegrees,WindSpeedMPH,WindSpeedGustMPH,Humidity,HourlyPrecipIn,Conditions,Clouds,dailyrainin,SoftwareType,DateUTC
2013-09-04 00:02:00,56.5,55.4,29.96,North,349,0.0,0.0,96,0.00,,---,0.00,VWS V14.01,2013-09-04 07:02:00,
2013-09-04 00:10:00,56.4,55.3,29.96,North,349,0.0,0.0,96,0.00,,---,0.00,VWS V14.01,2013-09-04 07:10:00,
2013-09-04 00:22:00,56.3,55.2,29.96,North,349,0.0,0.0,96,0.00,,---,0.00,VWS V14.01,2013-09-04 07:22:00,
2013-09-04 00:32:00,56.1,55.0,29.96,North,349,0.0,0.0,96,0.00,,---,0.00,VWS V14.01,2013-09-04 07:32:00,
2013-09-04 00:40:00,56.0,54.9,29.96,North,349,0.0,0.0,96,0.00,,---,0.00,VWS V14.01,2013-09-04 07:40:00,
2013-09-04 00:52:00,55.8,54.7,29.96,North,349,0.0,0.0,96,0.00,,---,0.00,VWS V14.01,2013-09-04 07:52:00,
2013-09-04 01:02:00,55.6,54.5,29.96,North,349,0.0,0.0,96,0.00,,---,0.00,VWS V14.01,2013-09-04 08:02:00,
2013-09-04 01:10:00,55.3,54.2,29.96,North,349,0.0,0.0,96,0.00,,---,0.00,VWS V14.01,2013-09-04 08:10:00,
2013-09-04 01:22:00,55.1,54.0,29.96,North,349,0.0,0.0,96,0.00,,---,0.00,VWS V14.01,2013-09-04 08:22:00,
2013-09-04 01:32:00,54.9,53.8,29.96,North,349,0.0,0.0,96,0.00,,---,0.00,VWS V14.01,2013-09-04 08:32:00,
2013-09-04 01:40:00,54.8,54.0,29.96,North,349,0.0,0.0,97,0.00,,---,0.00,VWS V14.01,2013-09-04 08:40:00,
2013-09-04 01:52:00,54.6,53.8,29.97,NNW,348,0.0,0.0,97,0.00,,---,0.00,VWS V14.01,2013-09-04 08:52:00,
2013-09-04 02:02:00,54.5,53.7,29.97,North,349,0.0,0.0,97,0.00,,---,0.00,VWS V14.01,2013-09-04 09:02:00,
2013-09-04 02:10:00,54.4,53.6,29.97,North,349,0.0,0.0,97,0.00,,---,0.00,VWS V14.01,2013-09-04 09:10:00,
2013-09-04 02:22:00,54.2,53.4,29.97,North,349,0.0,0.0,97,0.00,,---,0.00,VWS V14.01,2013-09-04 09:22:00,
2013-09-04 02:32:00,54.1,53.3,29.97,North,349,0.0,0.0,97,0.00,,---,0.00,VWS V14.01,2013-09-04 09:32:00,
2013-09-04 02:40:00,53.9,53.1,29.97,North,349,0.0,0.0,97,0.00,,---,0.00,VWS V14.01,2013-09-04 09:40:00,
2013-09-04 02:52:00,53.8,53.0,29.97,North,349,0.0,0.0,97,0.00,,---,0.00,VWS V14.01,2013-09-04 09:52:00,
2013-09-04 03:02:00,53.5,52.7,29.97,North,349,0.0,0.0,97,0.00,,---,0.00,VWS V14.01,2013-09-04 10:02:00,
2013-09-04 03:10:00,53.4,52.6,29.97,North,349,0.0,0.0,97,0.00,,---,0.00,VWS V14.01,2013-09-04 10:10:00,
2013-09-04 03:22:00,53.2,52.4,29.97,North,349,0.0,0.0,97,0.00,,---,0.00,VWS V14.01,2013-09-04 10:22:00,
2013-09-04 03:32:00,53.1,52.3,29.97,North,349,0.0,0.0,97,0.00,,---,0.00,VWS V14.01,2013-09-04 10:32:00,
2013-09-04 03:40:00,53.0,52.2,29.98,North,349,0.0,0.0,97,0.00,,---,0.00,VWS V14.01,2013-09-04 10:40:00,
2013-09-04 03:52:00,52.8,52.0,29.97,North,349,0.0,0.0,97,0.00,,---,0.00,VWS V14.01,2013-09-04 10:52:00,
2013-09-04 04:02:00,52.7,51.9,29.98,North,349,0.0,0.0,97,0.00,,---,0.00,VWS V14.01,2013-09-04 11:02:00,
2013-09-04 04:10:00,52.6,51.8,29.98,North,349,0.0,0.0,97,0.00,,---,0.00,VWS V14.01,2013-09-04 11:10:00,
2013-09-04 04:22:00,52.3,51.5,29.97,North,349,0.0,0.0,97,0.00,,---,0.00,VWS V14.01,2013-09-04 11:22:00,
2013-09-04 04:32:00,52.3,51.7,29.98,NNW,348,0.0,0.0,98,0.00,,---,0.00,VWS V14.01,2013-09-04 11:32:00,
2013-09-04 04:40:00,52.3,51.7,29.98,North,349,0.0,0.0,98,0.00,,---,0.00,VWS V14.01,2013-09-04 11:40:00,
2013-09-04 04:52:00,52.2,51.6,29.98,North,349,0.0,0.0,98,0.00,,---,0.00,VWS V14.01,2013-09-04 11:52:00,
2013-09-04 05:02:00,52.2,51.6,29.98,North,349,0.0,0.0,98,0.00,,---,0.00,VWS V14.01,2013-09-04 12:02:00,
2013-09-04 05:10:00,52.1,51.5,29.98,North,349,0.0,0.0,98,0.00,,---,0.00,VWS V14.01,2013-09-04 12:10:00,
2013-09-04 05:22:00,52.0,51.4,29.98,North,349,0.0,0.0,98,0.00,,---,0.00,VWS V14.01,2013-09-04 12:22:00,
2013-09-04 05:32:00,51.9,51.3,29.98,North,349,0.0,0.0,98,0.00,,---,0.00,VWS V14.01,2013-09-04 12:32:00,
2013-09-04 05:40:00,51.8,51.2,29.98,North,349,0.0,0.0,98,0.00,,---,0.00,VWS V14.01,2013-09-04 12:40:00,
2013-09-04 05:52:00,51.6,51.0,29.99,North,349,0.0,0.0,98,0.00,,---,0.00,VWS V14.01,2013-09-04 12:52:00,
2013-09-04 06:02:00,51.4,50.8,29.99,North,349,0.0,0.0,98,0.00,,---,0.00,VWS V14.01,2013-09-04 13:02:00,
2013-09-04 06:10:00,51.3,50.7,29.99,North,349,0.0,0.0,98,0.00,,---,0.00,VWS V14.01,2013-09-04 13:10:00,
2013-09-04 06:22:00,51.2,50.6,29.99,North,349,0.0,0.0,98,0.00,,---,0.00,VWS V14.01,2013-09-04 13:22:00,
2013-09-04 06:32:00,51.2,50.6,29.99,North,349,0.0,0.0,98,0.00,,---,0.00,VWS V14.01,2013-09-04 13:32:00,
2013-09-04 06:40:00,51.1,50.5,30.00,North,349,0.0,0.0,98,0.00,,---,0.00,VWS V14.01,2013-09-04 13:40:00,
2013-09-04 06:52:00,51.0,50.4,30.00,North,349,0.0,0.0,98,0.00,,---,0.00,VWS V14.01,2013-09-04 13:52:00,
2013-09-04 07:02:00,51.0,50.4,30.00,North,349,0.0,0.0,98,0.00,,---,0.00,VWS V14.01,2013-09-04 14:02:00,
2013-09-04 07:10:00,51.0,50.4,30.01,North,349,0.0,0.0,98,0.00,,---,0.00,VWS V14.01,2013-09-04 14:10:00,
2013-09-04 07:22:00,50.9,50.6,30.01,North,349,0.0,0.0,99,0.00,,---,0.00,VWS V14.01,2013-09-04 14:22:00,
2013-09-04 07:32:00,51.0,50.7,30.01,NNW,348,0.0,0.0,99,0.00,,---,0.00,VWS V14.01,2013-09-04 14:32:00,
2013-09-04 07:40:00,51.1,50.8,30.01,North,349,0.0,0.0,99,0.00,,---,0.00,VWS V14.01,2013-09-04 14:40:00,
2013-09-04 07:52:00,51.2,50.9,30.01,North,349,0.0,0.0,99,0.00,,---,0.00,VWS V14.01,2013-09-04 14:52:00,
2013-09-04 08:02:00,51.3,51.0,30.01,North,349,0.0,0.0,99,0.00,,---,0.00,VWS V14.01,2013-09-04 15:02:00,
2013-09-04 08:10:00,51.5,51.2,30.02,North,349,0.0,0.0,99,0.00,,---,0.00,VWS V14.01,2013-09-04 15:10:00,
2013-09-04 08:22:00,52.0,52.0,30.02,North,349,0.0,0.0,100,0.00,,---,0.00,VWS V14.01,2013-09-04 15:22:00,
2013-09-04 08:32:00,52.6,52.6,30.02,North,349,0.0,0.0,100,0.00,,---,0.00,VWS V14.01,2013-09-04 15:32:00,
2013-09-04 08:40:00,53.2,53.2,30.02,North,349,0.0,0.0,100,0.00,,---,0.00,VWS V14.01,2013-09-04 15:40:00,
2013-09-04 08:52:00,54.0,54.0,30.02,NNW,348,0.0,0.0,100,0.00,,---,0.00,VWS V14.01,2013-09-04 15:52:00,
2013-09-04 09:02:00,54.7,54.7,30.02,North,349,0.0,0.0,100,0.00,,---,0.00,VWS V14.01,2013-09-04 16:02:00,
2013-09-04 09:10:00,55.6,55.3,30.02,North,349,0.0,0.0,99,0.00,,---,0.00,VWS V14.01,2013-09-04 16:10:00,
2013-09-04 09:22:00,57.0,56.2,30.02,North,349,0.0,0.0,97,0.00,,---,0.00,VWS V14.01,2013-09-04 16:22:00,
2013-09-04 09:32:00,58.1,57.0,30.02,North,349,0.0,0.0,96,0.00,,---,0.00,VWS V14.01,2013-09-04 16:32:00,
2013-09-04 09:40:00,59.2,57.2,30.02,North,349,0.0,0.0,93,0.00,,---,0.00,VWS V14.01,2013-09-04 16:40:00,
2013-09-04 09:52:00,60.7,58.0,30.02,North,350,0.0,0.0,91,0.00,,---,0.00,VWS V14.01,2013-09-04 16:52:00,
2013-09-04 10:02:00,61.6,58.6,30.02,NNW,348,0.0,0.0,90,0.00,,---,0.00,VWS V14.01,2013-09-04 17:02:00,
2013-09-04 10:10:00,62.8,59.5,30.02,NNW,348,0.0,0.0,89,0.00,,---,0.00,VWS V14.01,2013-09-04 17:10:00,
2013-09-04 10:22:00,64.3,59.3,30.02,North,350,0.0,0.0,84,0.00,,---,0.00,VWS V14.01,2013-09-04 17:22:00,
2013-09-04 10:32:00,65.6,60.0,30.01,NW,315,0.0,0.0,82,0.00,,---,0.00,VWS V14.01,2013-09-04 17:32:00,
2013-09-04 10:40:00,66.5,60.1,30.02,NW,315,0.0,0.0,80,0.00,,---,0.00,VWS V14.01,2013-09-04 17:40:00,
2013-09-04 10:52:00,67.5,60.0,30.02,NW,315,0.0,0.0,77,0.00,,---,0.00,VWS V14.01,2013-09-04 17:52:00,
2013-09-04 11:02:00,68.3,60.1,30.01,NW,314,0.0,0.0,75,0.00,,---,0.00,VWS V14.01,2013-09-04 18:02:00,
2013-09-04 11:10:00,69.0,58.8,30.01,NE,35,0.0,4.0,70,0.00,,---,0.00,VWS V14.01,2013-09-04 18:10:00,
2013-09-04 11:22:00,70.2,59.1,30.01,ENE,61,1.0,3.0,68,0.00,,---,0.00,VWS V14.01,2013-09-04 18:22:00,
2013-09-04 11:32:00,70.5,59.0,30.01,ESE,112,1.0,4.0,67,0.00,,---,0.00,VWS V14.01,2013-09-04 18:32:00,
2013-09-04 11:40:00,70.1,58.6,30.01,East,91,0.0,5.0,67,0.00,,---,0.00,VWS V14.01,2013-09-04 18:40:00,
2013-09-04 11:52:00,70.0,58.5,30.01,ESE,118,1.0,4.0,67,0.00,,---,0.00,VWS V14.01,2013-09-04 18:52:00,
2013-09-04 12:02:00,70.0,58.9,30.01,ESE,116,1.0,4.0,68,0.00,,---,0.00,VWS V14.01,2013-09-04 19:02:00,
2013-09-04 12:10:00,69.7,58.7,30.00,SE,139,0.0,5.0,68,0.00,,---,0.00,VWS V14.01,2013-09-04 19:10:00,
2013-09-04 12:22:00,69.6,58.6,30.00,ESE,106,1.0,5.0,68,0.00,,---,0.00,VWS V14.01,2013-09-04 19:22:00,
2013-09-04 12:32:00,70.0,58.9,30.00,SE,125,1.0,4.0,68,0.00,,---,0.00,VWS V14.01,2013-09-04 19:32:00,
2013-09-04 12:40:00,70.5,59.8,29.99,SE,125,2.0,4.0,69,0.00,,---,0.00,VWS V14.01,2013-09-04 19:40:00,
2013-09-04 12:52:00,70.8,59.7,29.99,WSW,258,0.0,5.0,68,0.00,,---,0.00,VWS V14.01,2013-09-04 19:52:00,
2013-09-04 13:02:00,71.1,60.4,29.99,SSW,199,0.0,7.0,69,0.00,,---,0.00,VWS V14.01,2013-09-04 20:02:00,
2013-09-04 13:10:00,71.2,60.1,29.99,ESE,115,2.0,4.0,68,0.00,,---,0.00,VWS V14.01,2013-09-04 20:10:00,
2013-09-04 13:22:00,71.2,60.5,29.99,East,95,1.0,3.0,69,0.00,,---,0.00,VWS V14.01,2013-09-04 20:22:00,
2013-09-04 13:32:00,71.5,60.4,29.98,SE,127,0.0,7.0,68,0.00,,---,0.00,VWS V14.01,2013-09-04 20:32:00,
2013-09-04 13:40:00,71.6,60.9,29.99,SE,130,2.0,7.0,69,0.00,,---,0.00,VWS V14.01,2013-09-04 20:40:00,
2013-09-04 13:52:00,71.5,60.8,29.99,ESE,113,0.0,4.0,69,0.00,,---,0.00,VWS V14.01,2013-09-04 20:52:00,
2013-09-04 14:02:00,71.6,60.9,29.98,South,170,1.0,4.0,69,0.00,,---,0.00,VWS V14.01,2013-09-04 21:02:00,
2013-09-04 14:10:00,71.9,60.8,29.98,SSE,153,2.0,4.0,68,0.00,,---,0.00,VWS V14.01,2013-09-04 21:10:00,
2013-09-04 14:22:00,72.1,60.5,29.98,ENE,61,1.0,4.0,67,0.00,,---,0.00,VWS V14.01,2013-09-04 21:22:00,
2013-09-04 14:32:00,72.3,60.7,29.98,ESE,106,0.0,3.0,67,0.00,,---,0.00,VWS V14.01,2013-09-04 21:32:00,
2013-09-04 14:40:00,72.5,60.9,29.98,ESE,106,1.0,3.0,67,0.00,,---,0.00,VWS V14.01,2013-09-04 21:40:00,
2013-09-04 14:52:00,72.7,60.7,29.97,SSW,210,1.0,1.0,66,0.00,,---,0.00,VWS V14.01,2013-09-04 21:52:00,
2013-09-04 15:02:00,72.5,60.5,29.97,WNW,298,0.0,3.0,66,0.00,,---,0.00,VWS V14.01,2013-09-04 22:02:00,
2013-09-04 15:10:00,72.4,60.8,29.97,SE,127,0.0,3.0,67,0.00,,---,0.00,VWS V14.01,2013-09-04 22:10:00,
2013-09-04 15:22:00,72.6,60.6,29.96,SE,144,1.0,4.0,66,0.00,,---,0.00,VWS V14.01,2013-09-04 22:22:00,
2013-09-04 15:32:00,72.8,60.3,29.96,SE,126,0.0,3.0,65,0.00,,---,0.00,VWS V14.01,2013-09-04 22:32:00,
2013-09-04 15:40:00,73.3,60.4,29.95,SE,133,1.0,4.0,64,0.00,,---,0.00,VWS V14.01,2013-09-04 22:40:00,
2013-09-04 15:52:00,72.8,60.8,29.95,South,174,0.0,6.0,66,0.00,,---,0.00,VWS V14.01,2013-09-04 22:52:00,
2013-09-04 16:02:00,72.4,60.4,29.95,SE,136,2.0,4.0,66,0.00,,---,0.00,VWS V14.01,2013-09-04 23:02:00,
2013-09-04 16:10:00,71.8,60.2,29.94,SE,139,1.0,4.0,67,0.00,,---,0.00,VWS V14.01,2013-09-04 23:10:00,
2013-09-04 16:22:00,71.1,60.4,29.94,SE,136,2.0,5.0,69,0.00,,---,0.00,VWS V14.01,2013-09-04 23:22:00,
2013-09-04 16:32:00,70.9,59.8,29.94,SE,127,1.0,5.0,68,0.00,,---,0.00,VWS V14.01,2013-09-04 23:32:00,
2013-09-04 16:40:00,70.6,59.9,29.94,SSE,160,1.0,6.0,69,0.00,,---,0.00,VWS V14.01,2013-09-04 23:40:00,
2013-09-04 16:52:00,70.2,60.0,29.94,SE,133,2.0,6.0,70,0.00,,---,0.00,VWS V14.01,2013-09-04 23:52:00,
2013-09-04 17:02:00,70.3,60.0,29.93,SSE,160,0.0,6.0,70,0.00,,---,0.00,VWS V14.01,2013-09-05 00:02:00,
2013-09-04 17:10:00,70.3,60.0,29.93,SE,127,2.0,4.0,70,0.00,,---,0.00,VWS V14.01,2013-09-05 00:10:00,
2013-09-04 17:22:00,70.2,59.5,29.93,SE,144,1.0,6.0,69,0.00,,---,0.00,VWS V14.01,2013-09-05 00:22:00,
2013-09-04 17:32:00,70.1,59.5,29.92,SE,127,2.0,4.0,69,0.00,,---,0.00,VWS V14.01,2013-09-05 00:32:00,
2013-09-04 17:40:00,70.1,59.5,29.92,East,92,0.0,2.0,69,0.00,,---,0.00,VWS V14.01,2013-09-05 00:40:00,
2013-09-04 17:52:00,69.9,60.1,29.92,East,92,0.0,0.0,71,0.00,,---,0.00,VWS V14.01,2013-09-05 00:52:00,
2013-09-04 18:02:00,69.4,60.4,29.92,ENE,57,0.0,0.0,73,0.00,,---,0.00,VWS V14.01,2013-09-05 01:02:00,
2013-09-04 18:10:00,69.2,60.2,29.92,ENE,57,0.0,1.0,73,0.00,,---,0.00,VWS V14.01,2013-09-05 01:10:00,
2013-09-04 18:22:00,68.7,60.1,29.92,ENE,57,0.0,0.0,74,0.00,,---,0.00,VWS V14.01,2013-09-05 01:22:00,
2013-09-04 18:32:00,68.3,60.1,29.92,ENE,57,0.0,0.0,75,0.00,,---,0.00,VWS V14.01,2013-09-05 01:32:00,
2013-09-04 18:40:00,67.9,59.7,29.92,ENE,57,0.0,0.0,75,0.00,,---,0.00,VWS V14.01,2013-09-05 01:40:00,
2013-09-04 18:52:00,67.6,59.8,29.92,ENE,57,0.0,1.0,76,0.00,,---,0.00,VWS V14.01,2013-09-05 01:52:00,
2013-09-04 19:02:00,67.3,59.5,29.92,ENE,57,0.0,1.0,76,0.00,,---,0.00,VWS V14.01,2013-09-05 02:02:00,
2013-09-04 19:10:00,67.0,59.5,29.92,NE,52,0.0,0.0,77,0.00,,---,0.00,VWS V14.01,2013-09-05 02:10:00,
2013-09-04 19:22:00,66.4,59.7,29.92,NW,316,0.0,0.0,79,0.00,,---,0.00,VWS V14.01,2013-09-05 02:22:00,
2013-09-04 19:32:00,65.9,59.5,29.92,NW,316,0.0,0.0,80,0.00,,---,0.00,VWS V14.01,2013-09-05 02:32:00,
2013-09-04 19:40:00,65.3,59.3,29.92,NW,316,0.0,0.0,81,0.00,,---,0.00,VWS V14.01,2013-09-05 02:40:00,
2013-09-04 19:52:00,64.5,58.9,29.92,NW,316,0.0,0.0,82,0.00,,---,0.00,VWS V14.01,2013-09-05 02:52:00,
2013-09-04 20:02:00,63.9,58.6,29.92,NW,316,0.0,0.0,83,0.00,,---,0.00,VWS V14.01,2013-09-05 03:02:00,
2013-09-04 20:10:00,63.3,58.4,29.92,NW,316,0.0,0.0,84,0.00,,---,0.00,VWS V14.01,2013-09-05 03:10:00,
2013-09-04 20:22:00,62.6,57.7,29.93,NW,316,0.0,0.0,84,0.00,,---,0.00,VWS V14.01,2013-09-05 03:22:00,
2013-09-04 20:32:00,62.2,57.6,29.93,NW,316,0.0,0.0,85,0.00,,---,0.00,VWS V14.01,2013-09-05 03:32:00,
2013-09-04 20:41:00,61.9,57.3,29.93,NW,316,0.0,0.0,85,0.00,,---,0.00,VWS V14.01,2013-09-05 03:41:00,
2013-09-04 20:52:00,61.4,57.2,29.93,NW,316,0.0,0.0,86,0.00,,---,0.00,VWS V14.01,2013-09-05 03:52:00,
2013-09-04 21:02:00,60.9,57.0,29.94,NW,316,0.0,0.0,87,0.00,,---,0.00,VWS V14.01,2013-09-05 04:02:00,
2013-09-04 21:11:00,60.6,57.0,29.94,NW,316,0.0,0.0,88,0.00,,---,0.00,VWS V14.01,2013-09-05 04:11:00,
2013-09-04 21:22:00,60.2,56.9,29.94,NW,316,0.0,0.0,89,0.00,,---,0.00,VWS V14.01,2013-09-05 04:22:00,
2013-09-04 21:26:00,60.0,56.7,29.94,NW,316,0.0,1.0,89,0.00,,---,0.00,VWS V14.01,2013-09-05 04:26:00,
2013-09-04 21:32:00,59.9,56.6,29.94,NW,316,0.0,1.0,89,0.00,,---,0.00,VWS V14.01,2013-09-05 04:32:00,
2013-09-04 21:41:00,59.7,56.8,29.94,NW,316,0.0,0.0,90,0.00,,---,0.00,VWS V14.01,2013-09-05 04:41:00,
2013-09-04 21:52:00,59.5,56.5,29.95,NW,316,0.0,0.0,90,0.00,,---,0.00,VWS V14.01,2013-09-05 04:52:00,
2013-09-04 22:02:00,59.3,56.4,29.95,NW,316,0.0,0.0,90,0.00,,---,0.00,VWS V14.01,2013-09-05 05:02:00,
2013-09-04 22:11:00,59.0,56.4,29.95,NW,316,0.0,0.0,91,0.00,,---,0.00,VWS V14.01,2013-09-05 05:11:00,
2013-09-04 22:22:00,58.8,56.2,29.95,NW,317,0.0,1.0,91,0.00,,---,0.00,VWS V14.01,2013-09-05 05:22:00,
2013-09-04 22:32:00,58.5,56.2,29.95,NW,322,0.0,0.0,92,0.00,,---,0.00,VWS V14.01,2013-09-05 05:32:00,
2013-09-04 22:41:00,58.3,56.0,29.95,NW,322,0.0,0.0,92,0.00,,---,0.00,VWS V14.01,2013-09-05 05:41:00,
2013-09-04 22:52:00,58.1,55.8,29.95,NW,322,0.0,0.0,92,0.00,,---,0.00,VWS V14.01,2013-09-05 05:52:00,
2013-09-04 23:02:00,57.9,55.9,29.95,NW,322,0.0,0.0,93,0.00,,---,0.00,VWS V14.01,2013-09-05 06:02:00,
2013-09-04 23:11:00,57.8,55.8,29.95,North,358,0.0,1.0,93,0.00,,---,0.00,VWS V14.01,2013-09-05 06:11:00,
2013-09-04 23:22:00,57.6,55.6,29.95,North,359,0.0,0.0,93,0.00,,---,0.00,VWS V14.01,2013-09-05 06:22:00,
2013-09-04 23:32:00,57.3,55.3,29.95,North,358,0.0,0.0,93,0.00,,---,0.00,VWS V14.01,2013-09-05 06:32:00,
2013-09-04 23:41:00,57.2,55.5,29.95,North,358,0.0,0.0,94,0.00,,---,0.00,VWS V14.01,2013-09-05 06:41:00,
2013-09-04 23:52:00,56.9,55.2,29.95,North,358,0.0,0.0,94,0.00,,---,0.00,VWS V14.01,2013-09-05 06:52:00,